Rough River Lake Weather Center

Moon Phase Calendar



Rough River Lake Water Level
Online Cameras

 


      

Current Conditions in Leitchfield
9/24/2022 11:42:26 AM

66°F
Feels Like 66
Clouds
Humidity
78%
Pressure
29.97"
Wind
13.2 mph (SW)
Dew Point
59°F
UV Index
6/10 (High)
Visibility
6 mi

Hourly Forecast

Date & Time Sat, Sep 24
11:00 AM
Sat, Sep 24
12:00 PM
Sat, Sep 24
1:00 PM
Sat, Sep 24
2:00 PM
Sat, Sep 24
3:00 PM
Sat, Sep 24
4:00 PM
Sat, Sep 24
5:00 PM
Sat, Sep 24
6:00 PM
Sat, Sep 24
7:00 PM
Sat, Sep 24
8:00 PM
Sat, Sep 24
9:00 PM
Sat, Sep 24
10:00 PM
Sat, Sep 24
11:00 PM
Sun, Sep 25
12:00 AM
Sun, Sep 25
1:00 AM
Sun, Sep 25
2:00 AM
Sun, Sep 25
3:00 AM
Sun, Sep 25
4:00 AM
Sun, Sep 25
5:00 AM
Sun, Sep 25
6:00 AM
Sun, Sep 25
7:00 AM
Sun, Sep 25
8:00 AM
Sun, Sep 25
9:00 AM
Sun, Sep 25
10:00 AM
Sun, Sep 25
11:00 AM
Sun, Sep 25
12:00 PM
Sun, Sep 25
1:00 PM
Sun, Sep 25
2:00 PM
Sun, Sep 25
3:00 PM
Sun, Sep 25
4:00 PM
Sun, Sep 25
5:00 PM
Sun, Sep 25
6:00 PM
Sun, Sep 25
7:00 PM
Sun, Sep 25
8:00 PM
Sun, Sep 25
9:00 PM
Sun, Sep 25
10:00 PM
Sun, Sep 25
11:00 PM
Mon, Sep 26
12:00 AM
Mon, Sep 26
1:00 AM
Mon, Sep 26
2:00 AM
Mon, Sep 26
3:00 AM
Mon, Sep 26
4:00 AM
Mon, Sep 26
5:00 AM
Mon, Sep 26
6:00 AM
Mon, Sep 26
7:00 AM
Mon, Sep 26
8:00 AM
Mon, Sep 26
9:00 AM
Mon, Sep 26
10:00 AM
Condition
Clouds

Clouds

Clouds

Clouds

Clouds

Clouds

Clear

Clear

Clear

Clear

Clear

Clear

Clear

Clear

Clear

Clear

Clear

Clear

Rain

Rain

Clouds

Clouds

Clouds

Clouds

Clouds

Clouds

Clouds

Clear

Clear

Clear

Clear

Clear

Clear

Clear

Clear

Clear

Clear

Clear

Clear

Clear

Clear

Clear

Clear

Clear

Clear

Clear

Clouds

Clouds
Temperature 66°F66°F68°F72°F76°F80°F83°F77°F71°F68°F66°F65°F64°F65°F64°F64°F64°F63°F62°F61°F61°F64°F68°F72°F76°F78°F79°F79°F78°F77°F75°F71°F65°F62°F61°F59°F57°F56°F54°F53°F52°F52°F52°F51°F51°F55°F61°F66°F
Feels Like 66°F66°F68°F72°F76°F80°F82°F77°F70°F67°F65°F64°F64°F65°F64°F64°F65°F64°F62°F62°F62°F65°F68°F72°F75°F77°F79°F79°F77°F76°F74°F70°F63°F60°F59°F57°F55°F54°F52°F51°F50°F50°F49°F48°F48°F53°F59°F64°F
Cloudiness 81%77%75%48%32%16%1%1%1%0%0%0%0%1%1%3%3%2%5%9%13%52%64%57%46%37%31%0%0%0%0%0%0%0%0%0%0%0%0%0%0%0%0%0%0%2%20%15%
Visibility 6 mi6 mi6 mi6 mi6 mi6 mi6 mi6 mi6 mi6 mi6 mi6 mi6 mi6 mi6 mi6 mi6 mi6 mi6 mi6 mi6 mi6 mi6 mi6 mi6 mi6 mi6 mi6 mi6 mi6 mi6 mi6 mi6 mi6 mi6 mi6 mi6 mi6 mi6 mi6 mi6 mi6 mi6 mi6 mi6 mi6 mi6 mi6 mi
Precipitation 0%0%0%3%0%0%0%0%0%0%0%0%0%0%0%35%28%50%62%66%63%27%21%11%11%7%7%0%0%0%0%0%0%0%0%0%0%0%0%0%0%0%0%0%0%0%0%0%
Humidity 74%78%70%61%52%45%42%53%57%59%61%61%68%79%94%97%96%97%98%98%99%96%88%64%41%32%28%27%29%32%36%40%48%51%53%57%59%60%60%60%61%60%60%60%62%56%45%39%
Dew Point 58°F59°F58°F58°F57°F57°F58°F59°F55°F53°F52°F52°F53°F58°F62°F63°F63°F62°F61°F61°F61°F63°F64°F59°F50°F46°F44°F43°F43°F45°F46°F46°F44°F44°F44°F44°F43°F42°F41°F40°F39°F39°F38°F38°F38°F40°F40°F40°F
Pressure 29.97"29.97"29.97"29.94"29.91"29.91"29.85"29.85"29.85"29.85"29.88"29.85"29.85"29.85"29.83"29.83"29.83"29.83"29.83"29.83"29.83"29.83"29.83"29.85"29.85"29.85"29.83"29.83"29.83"29.83"29.85"29.85"29.88"29.88"29.91"29.91"29.91"29.91"29.91"29.91"29.91"29.91"29.94"29.94"29.97"29.97"29.97"29.97"
Wind Speed 11.8 mph13.2 mph12.9 mph12.5 mph12.4 mph11.4 mph7.9 mph4.7 mph3.2 mph2.1 mph1.7 mph4 mph7.6 mph10.1 mph8.6 mph11 mph9.5 mph6.9 mph6 mph6 mph7 mph8.2 mph9.7 mph11.6 mph12.8 mph14.4 mph16.5 mph18 mph17.6 mph16.1 mph13.6 mph10.7 mph5.9 mph4.7 mph5.8 mph5.7 mph6.2 mph6.4 mph5.7 mph5.5 mph4.4 mph4.8 mph5.5 mph6.3 mph6.7 mph6.8 mph9.8 mph10.5 mph
Wind
Direction
194°
SSW
215°
SW
227°
SW
233°
SW
241°
WSW
243°
WSW
242°
WSW
244°
WSW
254°
WSW
247°
WSW
227°
SW
169°
S
190°
S
199°
SSW
200°
SSW
207°
SSW
216°
SW
232°
SW
223°
SW
217°
SW
208°
SSW
227°
SW
258°
WSW
304°
NW
315°
NW
308°
NW
304°
NW
307°
NW
308°
NW
309°
NW
312°
NW
320°
NW
316°
NW
294°
WNW
288°
WNW
284°
WNW
273°
W
268°
W
286°
WNW
293°
WNW
279°
W
282°
WNW
269°
W
268°
W
267°
W
261°
W
277°
W
288°
WNW

Daily Forecast

Date High Low Precip. Humidity
Today
Sep 24

Rain
83 °F
54 °F
92%
78%
Sunday
Sep 25

Rain
79 °F
57 °F
66%
32%
Monday
Sep 26

Clear
74 °F
51 °F
0%
23%
Tuesday
Sep 27

Clear
74 °F
46 °F
0%
27%
Wednesday
Sep 28

Clear
66 °F
44 °F
0%
31%
Thursday
Sep 29

Clouds
69 °F
45 °F
0%
37%
Friday
Sep 30

Rain
67 °F
52 °F
27%
45%
Saturday
Oct 1

Clouds
77 °F
56 °F
3%
59%
Sunday
Oct 2

Clear
83 °F
54 °F
0%
22%
Monday
Oct 3

Clear
82 °F
55 °F
0%
28%
Tuesday
Oct 4

Clear
84 °F
57 °F
0%
34%
Wednesday
Oct 5

Clouds
84 °F
61 °F
0%
33%
Thursday
Oct 6

Clouds
81 °F
63 °F
0%
51%
Friday
Oct 7

Rain
72 °F
55 °F
100%
96%
Saturday
Oct 8

Clear
66 °F
46 °F
0%
43%
Sunday
Oct 9

Clear
68 °F
45 °F
0%
31%

Temperature 8-14 Day Outlook



Precipitation 8-14 Day Outlook




Quick Links
Rough River Lake News
Rough River Lake Photos
Rough River Lake Videos




About Us
Contact Us
Site Map
Search Site
Advertise With Us
   
RoughRiver.USLakes.info
THE ROUGH RIVER LAKE WEBSITE

Copyright 2022, Lakes Online
Privacy    |    Legal